FW2000 Weather Reports


Display with metric or nautical units.
time (UTC)temp
F
wind
direction
speed
MPH
gust
MPH
rain 1hr
in
rain 24hr
in
rain mn
in
humidity
%
barometer
mb
20260906174050 76 267 2.0 7.0 0.00 0.00 0.00 37 1014.5
20260906173548 77 191 2.0 5.0 0.00 0.00 0.00 37 1014.6
20260906173047 77 173 1.0 4.0 0.00 0.00 0.00 37 1014.5
20260906172546 77 80 0.0 4.0 0.00 0.00 0.00 37 1014.6
20260906172047 77 38 1.0 5.0 0.00 0.00 0.00 37 1014.6
20260906171555 77 76 2.0 5.0 0.00 0.00 0.00 37 1014.5
20260906171042 76 45 0.0 6.0 0.00 0.00 0.00 39 1014.6
20260906170542 75 54 2.0 6.0 0.00 0.00 0.00 40 1014.5
20260906170043 75 81 1.0 6.0 0.00 0.00 0.00 40 1014.6
20260906165539 74 103 1.0 6.0 0.00 0.00 0.00 40 1014.6
20260906165035 74 77 3.0 9.0 0.00 0.00 0.00 41 1014.7
20260906164540 74 76 3.0 9.0 0.00 0.00 0.00 40 1014.6
20260906164032 73 14 2.0 10.0 0.00 0.00 0.00 41 1014.7
20260906163531 73 34 3.0 10.0 0.00 0.00 0.00 41 1014.7
20260906163031 73 46 2.0 9.0 0.00 0.00 0.00 41 1014.7
20260906162531 73 38 2.0 8.0 0.00 0.00 0.00 42 1014.7
20260906162028 73 18 3.0 6.0 0.00 0.00 0.00 42 1014.7
20260906161527 72 15 2.0 7.0 0.00 0.00 0.00 43 1014.8
20260906161026 71 36 3.0 8.0 0.00 0.00 0.00 43 1014.8
20260906160525 71 58 3.0 8.0 0.00 0.00 0.00 43 1014.9
20260906160023 71 84 3.0 7.0 0.00 0.00 0.00 44 1014.9
20260906155522 70 86 2.0 6.0 0.00 0.00 0.00 44 1015.0
20260906155021 70 56 2.0 6.0 0.00 0.00 0.00 44 1014.9
20260906154535 69 77 2.0 5.0 0.00 0.00 0.00 45 1014.9
20260906154021 69 65 2.0 4.0 0.00 0.00 0.00 45 1014.8
20260906153516 68 119 2.0 6.0 0.00 0.00 0.00 45 1014.8
20260906153020 68 82 3.0 6.0 0.00 0.00 0.00 46 1014.8
20260906152517 68 102 4.0 6.0 0.00 0.00 0.00 46 1014.8
20260906152013 67 94 3.0 8.0 0.00 0.00 0.00 46 1014.8
20260906151512 67 105 4.0 11.0 0.00 0.00 0.00 47 1014.8
20260906151014 66 78 4.0 11.0 0.00 0.00 0.00 47 1014.8
20260906150509 66 87 4.0 10.0 0.00 0.00 0.00 47 1014.8
20260906150007 66 59 5.0 9.0 0.00 0.00 0.00 48 1014.7
20260906145505 65 88 3.0 9.0 0.00 0.00 0.00 48 1014.6
20260906145004 64 82 3.0 9.0 0.00 0.00 0.00 49 1014.5
20260906144502 64 72 2.0 7.0 0.00 0.00 0.00 50 1014.5
20260906144001 64 80 2.0 6.0 0.00 0.00 0.00 50 1014.4
20260906143603 63 98 2.0 8.0 0.00 0.00 0.00 51 1014.4
20260906143110 63 90 3.0 8.0 0.00 0.00 0.00 51 1014.3
20260906142557 62 100 1.0 8.0 0.00 0.00 0.00 52 1014.3
20260906142056 62 101 3.0 8.0 0.00 0.00 0.00 52 1014.3
20260906141555 62 91 2.0 7.0 0.00 0.00 0.00 52 1014.3
20260906141053 62 109 2.0 8.0 0.00 0.00 0.00 52 1014.2
20260906140553 62 102 3.0 8.0 0.00 0.00 0.00 52 1014.2
20260906140051 62 108 3.0 7.0 0.00 0.00 0.00 53 1014.1
20260906135551 62 96 2.0 7.0 0.00 0.00 0.00 53 1014.1
20260906135051 62 94 2.0 8.0 0.00 0.00 0.00 53 1014.0
20260906134552 62 101 2.0 9.0 0.00 0.00 0.00 53 1014.0
20260906134050 62 92 4.0 9.0 0.00 0.00 0.00 54 1013.9
20260906133548 62 95 4.0 8.0 0.00 0.00 0.00 54 1013.9
20260906133104 61 113 3.0 9.0 0.00 0.00 0.00 54 1013.9
20260906132549 61 104 3.0 10.0 0.00 0.00 0.00 54 1013.9
20260906132048 61 91 4.0 10.0 0.00 0.00 0.00 55 1013.9
20260906131548 61 78 3.0 7.0 0.00 0.00 0.00 55 1013.9
20260906131048 61 84 3.0 5.0 0.00 0.00 0.00 54 1014.0
20260906130547 61 82 2.0 5.0 0.00 0.00 0.00 54 1013.9
20260906130100 61 89 3.0 6.0 0.00 0.00 0.00 54 1014.0
20260906125548 61 91 2.0 6.0 0.00 0.00 0.00 54 1013.9
20260906125046 62 90 2.0 6.0 0.00 0.00 0.00 54 1013.9
20260906124547 61 82 2.0 6.0 0.00 0.00 0.00 54 1013.9
20260906124050 61 99 2.0 7.0 0.00 0.00 0.00 55 1013.9
20260906123546 61 109 2.0 7.0 0.00 0.00 0.00 55 1013.9
20260906123046 62 101 3.0 6.0 0.00 0.00 0.00 55 1014.0
20260906122546 62 105 2.0 4.0 0.00 0.00 0.00 55 1014.0
20260906122046 62 102 1.0 4.0 0.00 0.00 0.00 55 1014.0
20260906121546 62 91 2.0 4.0 0.00 0.00 0.00 55 1014.0
20260906121046 62 92 1.0 8.0 0.00 0.00 0.00 54 1014.0
20260906120547 62 113 2.0 8.0 0.00 0.00 0.00 55 1014.0
20260906120048 62 111 2.0 7.0 0.00 0.00 0.00 55 1013.9
20260906115545 62 103 3.0 7.0 0.00 0.00 0.00 55 1013.9
20260906115047 62 121 3.0 6.0 0.00 0.00 0.00 55 1013.9
20260906114555 61 92 3.0 7.0 0.00 0.00 0.00 55 1013.9
20260906114044 62 91 3.0 7.0 0.00 0.00 0.00 55 1013.9
20260906113544 62 80 3.0 5.0 0.00 0.00 0.00 55 1013.8
20260906113045 62 80 1.0 6.0 0.00 0.00 0.00 55 1013.9
20260906112544 62 90 1.0 6.0 0.00 0.00 0.00 55 1013.9
20260906112044 62 86 2.0 5.0 0.00 0.00 0.00 55 1013.9
20260906111544 62 77 3.0 5.0 0.00 0.00 0.00 55 1013.8
20260906111043 62 71 2.0 5.0 0.00 0.00 0.00 55 1013.8
20260906110542 62 85 2.0 6.0 0.00 0.00 0.00 55 1013.9
20260906110040 62 82 2.0 6.0 0.00 0.00 0.00 55 1013.8
20260906105541 62 86 2.0 5.0 0.00 0.00 0.00 55 1013.8
20260906105039 62 88 2.0 6.0 0.00 0.00 0.00 55 1013.9
20260906104547 62 84 3.0 5.0 0.00 0.00 0.00 55 1013.9
20260906104042 62 76 3.0 5.0 0.00 0.00 0.00 54 1014.0
20260906103538 62 93 2.0 6.0 0.00 0.00 0.00 54 1014.0
20260906103039 62 95 2.0 6.0 0.00 0.00 0.00 54 1013.9
20260906102538 62 88 2.0 7.0 0.00 0.00 0.00 54 1013.9
20260906102037 62 121 2.0 6.0 0.00 0.00 0.00 55 1013.8
20260906101537 62 90 3.0 6.0 0.00 0.00 0.00 55 1013.8
20260906101036 62 96 2.0 6.0 0.00 0.00 0.00 55 1013.8
20260906100539 62 99 2.0 4.0 0.00 0.00 0.00 56 1014.0
20260906100035 62 97 2.0 4.0 0.00 0.00 0.00 56 1014.0
20260906095536 62 98 2.0 4.0 0.00 0.00 0.00 56 1013.9
20260906095034 61 103 2.0 4.0 0.00 0.00 0.00 56 1013.9
20260906094555 62 106 1.0 3.0 0.00 0.00 0.00 56 1013.9
20260906094040 62 107 2.0 4.0 0.00 0.00 0.00 56 1014.0
20260906093534 62 99 1.0 4.0 0.00 0.00 0.00 57 1014.0
20260906093045 62 97 1.0 7.0 0.00 0.00 0.00 57 1014.0
20260906092532 61 94 1.0 7.0 0.00 0.00 0.00 57 1014.2
20260906092033 61 88 2.0 6.0 0.00 0.00 0.00 57 1014.1
20260906091531 61 74 3.0 6.0 0.00 0.00 0.00 58 1014.0
20260906091031 61 82 2.0 4.0 0.00 0.00 0.00 58 1014.1
20260906090535 61 82 2.0 4.0 0.00 0.00 0.00 58 1014.1
20260906090033 61 94 1.0 4.0 0.00 0.00 0.00 58 1014.1
20260906085533 61 97 2.0 5.0 0.00 0.00 0.00 58 1014.1
20260906085029 61 95 2.0 6.0 0.00 0.00 0.00 58 1014.2
20260906084529 61 84 2.0 3.0 0.00 0.00 0.00 58 1014.3
20260906084030 61 100 1.0 4.0 0.00 0.00 0.00 58 1014.3
20260906083529 61 100 2.0 5.0 0.00 0.00 0.00 59 1014.4
20260906083042 61 90 2.0 5.0 0.00 0.00 0.00 59 1014.4
20260906082528 61 79 2.0 7.0 0.00 0.00 0.00 59 1014.4
20260906082035 61 78 3.0 7.0 0.00 0.00 0.00 59 1014.4
20260906081533 61 81 2.0 8.0 0.00 0.00 0.00 60 1014.4
20260906081027 60 78 3.0 8.0 0.00 0.00 0.00 60 1014.3
20260906080526 60 93 3.0 6.0 0.00 0.00 0.00 60 1014.3
20260906080032 60 75 3.0 6.0 0.00 0.00 0.00 60 1014.2
20260906075524 60 86 2.0 4.0 0.00 0.00 0.00 60 1014.2
20260906075023 61 90 2.0 4.0 0.00 0.00 0.00 60 1014.2
20260906074528 61 83 2.0 5.0 0.00 0.00 0.00 60 1014.2
20260906074022 61 76 2.0 5.0 0.00 0.00 0.00 60 1014.2
20260906073520 61 76 3.0 6.0 0.00 0.00 0.00 60 1014.2
20260906073026 61 94 3.0 6.0 0.00 0.00 0.00 60 1014.4
20260906072521 60 91 3.0 6.0 0.00 0.00 0.00 60 1014.3
20260906072021 61 75 3.0 6.0 0.00 0.00 0.00 60 1014.4
20260906071520 61 100 2.0 6.0 0.00 0.00 0.00 60 1014.3
20260906071019 61 102 2.0 6.0 0.00 0.00 0.00 60 1014.3
20260906070521 61 96 2.0 4.0 0.00 0.00 0.00 60 1014.3
20260906070018 61 108 0.0 3.0 0.00 0.00 0.00 59 1014.4
20260906065517 61 108 0.0 3.0 0.00 0.00 0.00 59 1014.4
20260906065017 62 108 1.0 3.0 0.00 0.00 0.00 59 1014.3
20260906064516 62 102 0.0 4.0 0.00 0.00 0.00 58 1014.3
20260906064015 62 101 0.0 4.0 0.00 0.00 0.00 58 1014.4
20260906063517 62 111 0.0 4.0 0.00 0.00 0.00 58 1014.3
20260906063019 62 112 1.0 4.0 0.00 0.00 0.00 58 1014.4
20260906062518 62 101 1.0 4.0 0.00 0.00 0.00 58 1014.4
20260906062016 62 132 1.0 3.0 0.00 0.00 0.00 58 1014.5
20260906061516 62 132 1.0 3.0 0.00 0.00 0.00 58 1014.4
20260906061015 62 132 1.0 3.0 0.00 0.00 0.00 58 1014.5
20260906060519 62 132 2.0 3.0 0.00 0.00 0.00 58 1014.4
20260906060015 62 152 1.0 3.0 0.00 0.00 0.00 57 1014.4
20260906055514 62 214 0.0 0.0 0.00 0.00 0.00 57 1014.4
20260906055014 63 214 0.0 0.0 0.00 0.00 0.00 57 1014.4
20260906054514 63 214 0.0 2.0 0.00 0.00 0.00 57 1014.4
20260906054018 63 214 0.0 2.0 0.00 0.00 0.00 57 1014.4
20260906053513 63 214 0.0 2.0 0.00 0.00 0.00 57 1014.4
20260906053013 63 214 0.0 2.0 0.00 0.00 0.00 57 1014.5
20260906052515 63 214 0.0 3.0 0.00 0.00 0.00 57 1014.5
20260906052014 63 214 1.0 3.0 0.00 0.00 0.00 56 1014.5
20260906051513 63 214 1.0 3.0 0.00 0.00 0.00 57 1014.5
20260906051013 63 214 1.0 3.0 0.00 0.00 0.00 56 1014.6
20260906050515 63 215 1.0 3.0 0.00 0.00 0.00 56 1014.5
20260906050013 63 215 1.0 3.0 0.00 0.00 0.00 56 1014.5
20260906045515 63 215 1.0 3.0 0.00 0.00 0.00 56 1014.6
20260906045012 63 215 0.0 3.0 0.00 0.00 0.00 56 1014.6
20260906044512 63 215 1.0 3.0 0.00 0.00 0.00 56 1014.6
20260906044013 63 217 1.0 3.0 0.00 0.00 0.00 57 1014.6
20260906043512 63 224 0.0 3.0 0.00 0.00 0.00 57 1014.6
20260906043012 64 224 2.0 3.0 0.00 0.00 0.00 56 1014.6
20260906042511 64 224 1.0 3.0 0.00 0.00 0.00 56 1014.6
20260906042012 64 224 0.0 3.0 0.00 0.00 0.00 55 1014.5
20260906041512 64 224 0.0 3.0 0.00 0.00 0.00 55 1014.4
20260906041012 64 225 1.0 3.0 0.00 0.00 0.00 54 1014.4
20260906040511 65 225 1.0 4.0 0.00 0.00 0.00 54 1014.4
20260906040018 65 225 1.0 4.0 0.00 0.00 0.00 54 1014.4
20260906035511 65 240 1.0 2.0 0.00 0.00 0.00 53 1014.3
20260906035013 65 240 0.0 3.0 0.00 0.00 0.00 53 1014.3
20260906034511 66 238 1.0 3.0 0.00 0.00 0.00 53 1014.4
20260906034011 66 257 1.0 3.0 0.00 0.00 0.00 53 1014.4
20260906033511 66 257 1.0 3.0 0.00 0.00 0.00 52 1014.3
20260906033010 66 259 1.0 3.0 0.00 0.00 0.00 52 1014.2
20260906032512 66 259 1.0 3.0 0.00 0.00 0.00 52 1014.2
20260906032011 66 267 2.0 3.0 0.00 0.00 0.00 51 1014.2
20260906031510 67 267 1.0 3.0 0.00 0.00 0.00 51 1014.2
20260906031011 67 271 1.0 3.0 0.00 0.00 0.00 51 1014.2
20260906030510 67 271 1.0 3.0 0.00 0.00 0.00 50 1014.1
20260906030010 67 277 1.0 4.0 0.00 0.00 0.00 50 1014.1
20260906025508 67 276 2.0 4.0 0.00 0.00 0.00 50 1014.1
20260906025008 68 277 3.0 4.0 0.00 0.00 0.00 49 1014.1
20260906024526 68 273 2.0 4.0 0.00 0.00 0.00 49 1014.1
20260906024007 68 263 2.0 5.0 0.00 0.00 0.00 49 1014.0
20260906023508 69 255 2.0 5.0 0.00 0.00 0.00 48 1014.0
20260906023015 69 267 2.0 6.0 0.00 0.00 0.00 48 1014.0
20260906022507 69 275 3.0 6.0 0.00 0.00 0.00 47 1014.0
20260906022007 70 265 3.0 9.0 0.00 0.00 0.00 47 1014.0
20260906021509 70 271 3.0 9.0 0.00 0.00 0.00 46 1014.0
20260906021007 71 271 4.0 9.0 0.00 0.00 0.00 45 1014.1
20260906020508 71 277 4.0 9.0 0.00 0.00 0.00 45 1014.1
20260906020007 72 267 2.0 9.0 0.00 0.00 0.00 44 1014.1
20260906015507 72 285 4.0 9.0 0.00 0.00 0.00 44 1014.1
20260906015006 73 265 2.0 5.0 0.00 0.00 0.00 43 1014.0
20260906014509 73 277 1.0 5.0 0.00 0.00 0.00 42 1014.0
20260906014009 73 270 2.0 6.0 0.00 0.00 0.00 42 1014.1
20260906013506 73 239 1.0 5.0 0.00 0.00 0.00 42 1014.1
20260906013017 74 205 1.0 8.0 0.00 0.00 0.00 42 1014.1
20260906012508 74 210 3.0 8.0 0.00 0.00 0.00 42 1014.1
20260906012005 74 283 2.0 5.0 0.00 0.00 0.00 41 1014.2
20260906011506 74 258 1.0 8.0 0.00 0.00 0.00 42 1014.2
20260906011005 74 247 3.0 10.0 0.00 0.00 0.00 41 1014.1
20260906010506 74 225 4.0 10.0 0.00 0.00 0.00 40 1014.1
20260906010004 75 257 3.0 7.0 0.00 0.00 0.00 40 1014.0
20260906005505 75 271 2.0 8.0 0.00 0.00 0.00 40 1013.8
20260906005004 75 277 4.0 8.0 0.00 0.00 0.00 40 1014.0
20260906004505 75 210 3.0 7.0 0.00 0.00 0.00 40 1014.1
20260906004004 74 282 3.0 9.0 0.00 0.00 0.00 40 1014.1
20260906003504 75 203 5.0 10.0 0.00 0.00 0.00 40 1014.0
20260906003004 76 267 5.0 10.0 0.00 0.00 0.00 39 1014.0
20260906002503 76 261 4.0 8.0 0.00 0.00 0.00 38 1013.9
20260906002004 76 248 3.0 9.0 0.00 0.00 0.00 38 1013.7
20260906001503 76 233 3.0 7.0 0.00 0.00 0.00 38 1013.7
20260906001002 76 277 2.0 10.0 0.00 0.00 0.00 38 1013.9
20260906000503 76 247 5.0 10.0 0.00 0.00 0.00 38 1013.9
20260906000002 76 163 4.0 10.0 0.00 0.00 0.00 38 1013.9
20260905235501 75 227 3.0 11.0 0.00 0.00 0.00 39 1014.1
20260905235002 76 165 6.0 14.0 0.00 0.00 0.00 37 1014.1
20260905234503 76 192 7.0 13.0 0.00 0.00 0.00 37 1014.1
20260905234001 76 196 3.0 11.0 0.00 0.00 0.00 38 1014.0
20260905233501 75 192 6.0 13.0 0.00 0.00 0.00 38 1014.1
20260905233000 76 153 6.0 17.0 0.00 0.00 0.00 37 1014.2
20260905232500 76 190 8.0 17.0 0.00 0.00 0.00 37 1014.1
20260905232101 76 209 5.0 14.0 0.00 0.00 0.00 38 1014.1
20260905231600 77 198 7.0 12.0 0.00 0.00 0.00 38 1014.1
20260905231059 75 223 5.0 14.0 0.00 0.00 0.00 39 1014.2
20260905230559 75 219 8.0 13.0 0.00 0.00 0.00 39 1014.3
20260905230106 76 207 6.0 12.0 0.00 0.00 0.00 37 1014.3
20260905225557 77 231 7.0 12.0 0.00 0.00 0.00 37 1014.2
20260905225100 76 128 6.0 17.0 0.00 0.00 0.00 37 1014.4
20260905224610 77 166 7.0 17.0 0.00 0.00 0.00 37 1014.5
20260905224058 78 142 2.0 10.0 0.00 0.00 0.00 36 1014.6
20260905223556 78 261 5.0 10.0 0.00 0.00 0.00 37 1014.6
20260905223057 78 224 3.0 10.0 0.00 0.00 0.00 37 1014.6
20260905222557 77 167 4.0 11.0 0.00 0.00 0.00 38 1014.6
20260905222056 75 246 6.0 11.0 0.00 0.00 0.00 39 1014.5
20260905221611 77 192 5.0 10.0 0.00 0.00 0.00 37 1014.7
20260905221059 78 238 5.0 12.0 0.00 0.00 0.00 37 1014.6
20260905220555 78 225 5.0 12.0 0.00 0.00 0.00 38 1014.6
20260905220054 78 163 5.0 11.0 0.00 0.00 0.00 37 1014.7
20260905215554 77 168 3.0 14.0 0.00 0.00 0.00 38 1014.8
20260905215054 76 222 8.0 16.0 0.00 0.00 0.00 39 1014.8
20260905214556 76 169 8.0 15.0 0.00 0.00 0.00 38 1014.8
20260905214055 77 173 6.0 15.0 0.00 0.00 0.00 37 1014.8
20260905213554 77 169 4.0 11.0 0.00 0.00 0.00 38 1014.9
20260905213101 77 170 3.0 11.0 0.00 0.00 0.00 38 1014.9
20260905212552 78 273 3.0 14.0 0.00 0.00 0.00 37 1014.9
20260905212053 77 147 7.0 14.0 0.00 0.00 0.00 37 1015.0
20260905211556 77 231 4.0 13.0 0.00 0.00 0.00 39 1015.0
20260905211051 78 205 4.0 12.0 0.00 0.00 0.00 37 1015.0
20260905210550 77 291 5.0 12.0 0.00 0.00 0.00 38 1015.1
20260905210056 77 269 5.0 12.0 0.00 0.00 0.00 39 1015.1
20260905205550 78 197 3.0 15.0 0.00 0.00 0.00 38 1015.1
20260905205049 78 179 6.0 15.0 0.00 0.00 0.00 38 1015.0
20260905204549 77 230 3.0 10.0 0.00 0.00 0.00 40 1014.9
20260905204048 76 181 3.0 11.0 0.00 0.00 0.00 41 1015.0
20260905203547 75 237 4.0 11.0 0.00 0.00 0.00 42 1015.1
20260905203048 76 188 6.0 10.0 0.00 0.00 0.00 40 1015.1
20260905202546 75 284 5.0 10.0 0.00 0.00 0.00 42 1015.0
20260905202046 75 172 5.0 18.0 0.00 0.00 0.00 41 1015.0
20260905201601 76 150 9.0 18.0 0.00 0.00 0.00 40 1015.0
20260905201045 76 185 2.0 15.0 0.00 0.00 0.00 42 1015.0
20260905200544 75 168 7.0 17.0 0.00 0.00 0.00 41 1015.0
20260905200046 76 208 9.0 17.0 0.00 0.00 0.00 41 1015.1
20260905195542 75 194 4.0 14.0 0.00 0.00 0.00 43 1015.0
20260905195043 74 213 9.0 21.0 0.00 0.00 0.00 42 1015.0
20260905194543 74 222 8.0 21.0 0.00 0.00 0.00 44 1015.1
20260905194044 75 235 7.0 19.0 0.00 0.00 0.00 44 1015.0
20260905193541 75 228 8.0 16.0 0.00 0.00 0.00 42 1015.0
20260905193045 74 171 10.0 18.0 0.00 0.00 0.00 43 1015.0
20260905192541 75 275 5.0 15.0 0.00 0.00 0.00 42 1014.9
20260905192042 75 230 6.0 15.0 0.00 0.00 0.00 43 1015.2
20260905191539 74 218 6.0 13.0 0.00 0.00 0.00 43 1015.3
20260905191039 74 178 6.0 15.0 0.00 0.00 0.00 43 1015.5
20260905190541 73 180 6.0 15.0 0.00 0.00 0.00 44 1015.3
20260905190038 75 176 6.0 14.0 0.00 0.00 0.00 43 1015.4
20260905185537 75 161 5.0 15.0 0.00 0.00 0.00 43 1015.5
20260905185036 74 230 5.0 15.0 0.00 0.00 0.00 43 1015.6
20260905184542 74 185 7.0 11.0 0.00 0.00 0.00 44 1015.6
20260905184036 73 180 5.0 10.0 0.00 0.00 0.00 44 1015.6
20260905183535 72 183 2.0 12.0 0.00 0.00 0.00 46 1015.6
20260905183034 71 205 6.0 12.0 0.00 0.00 0.00 46 1015.6
20260905182536 71 188 0.0 11.0 0.00 0.00 0.00 48 1015.6
20260905182034 72 232 3.0 11.0 0.00 0.00 0.00 45 1015.7
20260905181534 72 290 2.0 10.0 0.00 0.00 0.00 45 1015.6
20260905181036 72 283 4.0 8.0 0.00 0.00 0.00 45 1015.6
20260905180534 72 257 3.0 8.0 0.00 0.00 0.00 45 1015.6
20260905180036 72 277 3.0 8.0 0.00 0.00 0.00 45 1015.5
20260905175533 72 291 4.0 8.0 0.00 0.00 0.00 46 1015.5
20260905175034 72 282 3.0 7.0 0.00 0.00 0.00 46 1015.4
20260905174531 72 288 2.0 7.0 0.00 0.00 0.00 46 1015.4